Martinsburg, WV

2:27 AM EDT on September 23, 2017 (GMT -0400)
Eastern W Va Regional-Shepherd

Weather History for KMRB - February, 2014

Change the Weather History Date:

Wednesday, February 26, 2014

  Actual Average Record
Temperature  
Mean Temperature 25 °F 36 °F  
Max Temperature 33 °F 46 °F 71 °F (1951)
Min Temperature 17 °F 26 °F 6 °F (1970)
Degree Days  
Heating Degree Days 40 29  
Month to date heating degree days 837 817  
Since 1 July heating degree days 4004 3900  
Cooling Degree Days 0 0  
Month to date cooling degree days 0 0  
Year to date cooling degree days 0 0  
Moisture  
Dew Point 10 °F    
Average Humidity 45    
Maximum Humidity 63    
Minimum Humidity 26    
Precipitation  
Precipitation T in 0.09 in 1.40 in (1934)
Month to date precipitation 2.71 2.16  
Year to date precipitation 3.75 4.60  
Sea Level Pressure  
Sea Level Pressure 29.93 in    
Wind  
Wind Speed 9 mph (WNW)    
Max Wind Speed 23 mph    
Max Gust Speed 30 mph    
Visibility 9 miles    
Events Snow    
T = Trace of Precipitation, MM = Missing Value Source: NWS Daily Summary

Daily Weather History Graph

Daily Weather History Graph

Search for Another Location

Airport or City:

Trip Planner

Search our weather history database for the weather conditions in past years. The results will help you decide how hot, cold, wet, or windy it might be!

Date:

Astronomy

Feb. 26, 2014 Rise Set
Actual Time 6:49 AM EST 6:01 PM EST
Civil Twilight 6:22 AM EST 6:28 PM EST
Nautical Twilight 5:50 AM EST 6:59 PM EST
Astronomical Twilight 5:19 AM EST 7:30 PM EST
Moon 4:33 AM EST (2/26) 3:13 PM EST (2/26)
Length of Visible Light 12h 05m
Length of Day
11h 11m
Waning Crescent, 10% of the Moon is Illuminated
Feb 26
Waning Crescent
Mar 1
New
Mar 8
First Quarter
Mar 16
Full
Mar 23
Last Quarter

Hourly Weather History & Observations

Time (EST) Temp. Windchill Dew Point Humidity Pressure Visibility Wind Dir Wind Speed Gust Speed Precip Events Conditions
12:53 AM 28.9 °F 21.9 °F 12.0 °F 49% 29.99 in 10.0 mi SW 6.9 mph - N/A   Scattered Clouds
1:53 AM 30.0 °F 23.2 °F 12.0 °F 47% 29.96 in 10.0 mi WSW 6.9 mph - N/A   Partly Cloudy
2:53 AM 30.0 °F 24.1 °F 12.9 °F 49% 29.93 in 10.0 mi WSW 5.8 mph - N/A   Overcast
3:53 AM 30.0 °F 26.5 °F 12.9 °F 49% 29.92 in 10.0 mi South 3.5 mph - N/A   Overcast
4:53 AM 30.0 °F 18.7 °F 15.1 °F 54% 29.92 in 10.0 mi WSW 16.1 mph 23.0 mph N/A   Overcast
5:53 AM 28.9 °F 23.9 °F 18.0 °F 64% 29.92 in 10.0 mi SW 4.6 mph - N/A   Overcast
6:53 AM 30.0 °F 21.7 °F 16.0 °F 56% 29.93 in 10.0 mi West 9.2 mph - N/A   Overcast
7:41 AM 28.9 °F 16.5 °F 19.0 °F 67% 29.95 in 2.0 mi WNW 18.4 mph 24.2 mph 0.00 in Snow Light Snow
7:48 AM 26.6 °F 15.2 °F 19.4 °F 74% 29.95 in 1.0 mi WNW 13.8 mph 24.2 mph 0.00 in Snow Light Snow
7:53 AM 28.0 °F 17.5 °F 19.0 °F 69% 29.97 in 2.5 mi WNW 12.7 mph - 0.00 in Snow Light Snow
7:56 AM 28.0 °F 17.5 °F 19.0 °F 69% 29.95 in 7.0 mi WNW 12.7 mph - 0.00 in   Overcast
8:53 AM 28.0 °F 14.9 °F 12.0 °F 51% 30.01 in 10.0 mi WNW 19.6 mph 24.2 mph 0.00 in   Overcast
9:53 AM 30.9 °F 21.7 °F 10.9 °F 43% 30.00 in 10.0 mi WNW 11.5 mph - N/A   Mostly Cloudy
10:53 AM 30.9 °F 20.2 °F 10.0 °F 42% 29.99 in 10.0 mi WNW 15.0 mph 21.9 mph 0.00 in   Mostly Cloudy
11:30 AM 30.9 °F 19.8 °F 12.0 °F 46% 29.97 in 10.0 mi North 16.1 mph - N/A   Mostly Cloudy
11:53 AM 30.9 °F 21.7 °F 10.9 °F 43% 29.98 in 10.0 mi NW 11.5 mph 29.9 mph N/A   Mostly Cloudy
12:53 PM 33.1 °F 22.2 °F 6.1 °F 32% 29.94 in 10.0 mi NNW 17.3 mph 27.6 mph N/A   Partly Cloudy
1:53 PM 32.0 °F 21.2 °F 3.9 °F 31% 29.93 in 10.0 mi NW 16.1 mph 24.2 mph N/A   Partly Cloudy
2:38 PM 30.9 °F 21.7 °F 3.0 °F 31% 29.89 in 10.0 mi WNW 11.5 mph 20.7 mph N/A   Clear
2:53 PM 32.0 °F 22.5 °F 3.0 °F 29% 29.91 in 10.0 mi WNW 12.7 mph - N/A   Clear
3:53 PM 32.0 °F 20.8 °F 1.9 °F 28% 29.89 in 10.0 mi WNW 17.3 mph 23.0 mph N/A   Clear
4:53 PM 30.0 °F 22.4 °F 1.9 °F 30% 29.88 in 10.0 mi NW 8.1 mph - N/A   Clear
5:53 PM 28.0 °F 20.8 °F 3.0 °F 34% 29.88 in 10.0 mi NNW 6.9 mph - N/A   Clear
6:53 PM 26.1 °F 19.4 °F 3.0 °F 37% 29.88 in 10.0 mi North 5.8 mph - N/A   Clear
7:53 PM 24.1 °F 19.7 °F 3.9 °F 42% 29.88 in 10.0 mi North 3.5 mph - N/A   Clear
8:53 PM 21.0 °F 13.4 °F 3.9 °F 48% 29.88 in 10.0 mi ENE 5.8 mph - N/A   Clear
9:53 PM 19.9 °F 10.1 °F 3.9 °F 50% 29.87 in 10.0 mi North 8.1 mph - N/A   Clear
10:53 PM 18.0 °F - 7.0 °F 62% 29.87 in 10.0 mi Calm Calm - N/A   Clear
11:53 PM 18.0 °F - 6.1 °F 60% 29.87 in 10.0 mi Calm Calm - N/A   Clear